Regional Weather Roundup
Issued by NWS

Home | Current Version | Previous Version | Graphics & Text | Print | Product List | Glossary On
Versions: 1 2 3 4 5 6 7 8 9 10 11 12 13 14 15 16 17 18 19 20 21 22 23 24 25 26 27 28 29 30 31 32 33 34 35 36 37 38 39 40 41 42 43 44 45 46 47 48 49 50
000
ASUS43 KOAX 310802
RWRNE

WEATHER ROUNDUP FOR NEBRASKA
NATIONAL WEATHER SERVICE OMAHA NE
300 AM CDT THU JUL 31 2014

NOTES: SATELLITE DATA IS BEING USED TO AUGMENT CLOUD COVER ABOVE
       12000 FEET.
       "FAIR" INDICATES FEW OR NO CLOUDS BELOW 12,000 FEET WITH NO
       SIGNIFICANT WEATHER AND/OR OBSTRUCTIONS TO VISIBILITY.

  * THESE STATIONS DO NOT REPORT WEATHER SUCH AS RAIN...SNOW OR FOG.

NEZ001>004-019>022-054>056-310900-
NEBRASKA PANHANDLE

CITY           SKY/WX    TMP DP  RH WIND       PRES   REMARKS
SCOTTSBLUFF    CLOUDY    61  58  90 N3        30.21F
ALLIANCE       MOCLDY    55  53  93 W6        30.20F
CHADRON        CLOUDY    61  51  70 CALM      30.17S
KIMBALL        CLOUDY    58  57  95 W7        30.25F
SIDNEY         CLOUDY    57  54  89 W8        30.25F
$$

NEZ057>060-069>072-079>082-310900-
SOUTHWEST NEBRASKA

CITY           SKY/WX    TMP DP  RH WIND       PRES   REMARKS
NORTH PLATTE   MOCLDY    60  57  89 W3        30.16F
IMPERIAL       CLEAR     61  57  87 W6        30.20F
LEXINGTON      CLEAR     61  56  84 S5        30.15F
MCCOOK         CLEAR     60  58  92 SW7       30.18F
OGALLALA       MOCLDY    55  54  96 W5        30.18F
$$

NEZ005>010-023>029-035>040-094-310900-
NORTH CENTRAL NEBRASKA

CITY           SKY/WX    TMP DP  RH WIND       PRES   REMARKS
VALENTINE      PTCLDY    58  51  78 W5        30.09S
AINSWORTH      PTCLDY    63  55  73 S7        30.10S
BROKEN BOW     PTCLDY    56  54  93 CALM      30.14F
O`NEILL        PTCLDY    64  59  85 SE7       30.11F
ORD            PTCLDY    63  57  81 S5        30.12F
THEDFORD       MOCLDY    66  59  77 SW8       30.14F
$$

NEZ041-046>049-061>064-073>077-083>087-310900-
SOUTH CENTRAL NEBRASKA

CITY           SKY/WX    TMP DP  RH WIND       PRES   REMARKS
GRAND ISLAND   PTCLDY    62  55  77 SW5       30.14F
AURORA         CLEAR     58  56  94 CALM      30.13F
HASTINGS       CLEAR     62  52  69 CALM      30.14F
HEBRON         PTCLDY    54  50  87 CALM      30.14S
HOLDREGE       CLEAR     62  54  75 CALM      30.16S
KEARNEY *      PTCLDY    63  54  72 S8        30.15S
YORK           CLEAR     55  55 100 SW6       30.13F
$$

NEZ011>018-030>034-042>045-310900-
NORTHEAST NEBRASKA

CITY           SKY/WX    TMP DP  RH WIND       PRES   REMARKS
NORFOLK        CLEAR     58  54  86 CALM      30.11F
ALBION         PTCLDY    58  55  88 CALM      30.13S
BLAIR          CLEAR     62  52  70 CALM      30.10F
COLUMBUS *     PTCLDY    55  50  82 CALM      30.12F
FREMONT        CLEAR     60  56  87 CALM      30.12S
TEKAMAH        CLEAR     55  51  86 CALM      30.10F
WAYNE          CLEAR     54  52  94 CALM      30.11F
$$

NEZ050>053-065>068-078-088>093-310900-
SOUTHEAST NEBRASKA

CITY           SKY/WX    TMP DP  RH WIND       PRES   REMARKS
LINCOLN        PTCLDY    55  52  89 CALM      30.13S
OMAHA EPPLEY   PTCLDY    59  56  89 CALM      30.11S
BEATRICE       CLEAR     56  53  91 CALM      30.13S
FALLS CITY     CLEAR     58  55  90 CALM      30.10S
NEBRASKA CITY  CLEAR     63  55  76 SW3       30.11S
PLATTSMOUTH    MOCLDY    63  53  70 SW3       30.11S
$$

NEZ044-045-051>053-067-310900-
OMAHA AREA

CITY           SKY/WX    TMP DP  RH WIND       PRES   REMARKS
OMAHA EPPLEY   PTCLDY    59  56  89 CALM      30.11S
BLAIR          CLEAR     62  52  70 CALM      30.10F
FREMONT        CLEAR     60  56  87 CALM      30.12S
MILLARD        CLEAR     60  58  92 CALM      30.11S
OFFUTT AFB     PTCLDY    56  56 100 CALM      30.10F
PLATTSMOUTH    MOCLDY    63  53  70 SW3       30.11S
WAHOO          FAIR      58  55  90 CALM      30.12S
$$



USA.gov is the U.S. government's official web portal to all federal, state and local government web resources and services.